Other Public Products
Issued by NWS Charleston, SC

Current Version | Previous Version | Graphics & Text | Print | Product List | Glossary On
Versions: 1 2 3 4 5 6 7 8 9 10 11 12 13 14 15 16 17 18 19 20 21 22 23 24 25 26 27 28 29 30 31 32 33 34 35 36 37 38 39 40 41 42 43 44 45 46 47 48 49 50
082 FPUS82 KCHS 211627 OPUCHS TEST...KCHS/KSAV Gateway Observations...TEST National Weather Service Charleston SC 1100 AM EST TUE NOV 21 2017 NOTE: "fair" indicates few or no clouds below 12,000 feet with no significant weather and/or obstructions to visibility. SCZ050-WAZ558-NCZ071-TXZ119-213-PAZ071-DCZ001-FLZ074-172-MI076- NYZ176-178-MAZ016-IL014-TNZ027-NJZ106-GAZ044-MD014-211700- ...Gateway Observations for Charleston International... CITY SKY/WX TMP DP RH WIND PRES REMARKS Chas Airport PTSUNNY 67 55 65 NE8 30.15F Seattle LGT RAIN 43 42 97 N5 29.95F FOG Charlotte CLOUDY 55 39 54 S5 30.18F Dallas DFW MOSUNNY 59 51 75 S9 29.88R Dallas Love MOSUNNY 58 51 78 S9 29.89S Philladelphia PTSUNNY 55 30 38 SW22G30 30.12F Wash National CLOUDY 52 32 46 S12 30.13F Baltimore PTSUNNY 54 29 38 SW9G17 30.12F Miami MOSUNNY 80 68 66 S9 30.00S Detroit PTSUNNY 47 30 51 SW22G28 29.75R Newark PTSUNNY 54 30 40 SW20G28 30.11F Laguardia PTSUNNY 54 30 40 SW18G24 30.11F J F K MOSUNNY 54 36 50 S16 30.14F Boston Logan MOSUNNY 55 28 35 SW26G33 30.07F Ft. Lauderdale MOSUNNY 80 69 69 SE9 29.99F Chicago O`Hare LGT RAIN 42 31 64 W10G22 29.79R Chicago Midway LGT RAIN 43 36 76 W14 29.81R Houston Bush PTSUNNY 69 62 78 SE7 29.94R Houston Hobby CLOUDY 69 64 84 S6 29.94R Nashville MOSUNNY 53 33 46 SW8 30.10R Atlanta PTSUNNY 54 45 71 SE10 30.12F $$ GAZ044-118-TXZ119-213-NCZ071-DCZ001-MDZ014-506-PAZ021-071-NJZ106- NYZ176-178-MAZ106-OHZ011-021-055-MIZ076-KYZ091-ILZ014-INZ047- MNZ060-ONZ431-211700- ...Gateway Observations for Savannah International... CITY SKY/WX TMP DP RH WIND PRES REMARKS Savannah Arpt CLOUDY 69 57 65 E6 30.11F Atlanta PTSUNNY 54 45 71 SE10 30.12F Charlotte CLOUDY 55 39 54 S5 30.18F Dallas DFW MOSUNNY 59 51 75 S9 29.88R Houston Bush PTSUNNY 69 62 78 SE7 29.94R Wash National CLOUDY 52 32 46 S12 30.13F Wash Dulles PTSUNNY 52 30 43 SW9 30.10F Baltimore PTSUNNY 54 29 38 SW9G17 30.12F Philadelphia PTSUNNY 55 30 38 SW22G30 30.12F Newark PTSUNNY 54 30 40 SW20G28 30.11F Laguardia PTSUNNY 54 30 40 SW18G24 30.11F J F K MOSUNNY 54 36 50 S16 30.14F Boston MOSUNNY 55 28 35 SW26G33 30.07F Pittsburg CLOUDY 50 27 40 SW18G26 29.95S Akron PTSUNNY 47 26 44 SW20G33 29.88S Cleveland PTSUNNY 50 29 44 S18G28 29.84F Cincinnati MOSUNNY 48 31 51 S18G26 29.95F Columbus PTSUNNY 47 30 51 SW18G29 29.94F Detroit PTSUNNY 47 30 51 SW22G28 29.75R Chicago O`Hare LGT RAIN 42 31 64 W10G22 29.79R Minneapolis PTSUNNY 23 10 57 NW18G32 30.03R WCI 9 Indianapolis MOSUNNY 50 31 48 SW14 29.91R Toronto Canada PTSUNNY 50 34 53 SW21G31 29.65F $$

USA.gov is the U.S. government's official web portal to all federal, state and local government web resources and services.